Flag Weather past 2 weeks in Ulaanbaatar, Mongolia

Now
5 °F

Scattered clouds.


Feels Like: 5 °F
Forecast: -12 / 9 °F
Wind: 1 mph from North

Location: Ulan-Bator

Current Time: Nov 28, 2014 at 6:21:26 PM

Latest Report: Nov 28, 2014 at 6:00 PM


Visibility: 4 mi

Pressure: 29.68 "Hg

Humidity: 55%

Dew point: -8 °F

Location of UlaanbaatarLocation

Historic Weather in Ulaanbaatar — Graph

°F

Ulaanbaatar temperature yesterday

Maximum temperature yesterday: 19 °F (at 4:00 PM)
Minimum temperature yesterday: -15 °F (at 3:30 AM)
Average temperature yesterday: 2 °F

Past Weeks' High & Low Weather Summary

 TemperatureHumidityPressure
High34 °F (Nov 18, 3:00 PM)85% (Nov 19, 12:00 AM)30.27 "Hg (Nov 19, 12:00 AM)
Low-15 °F (Nov 27, 3:30 AM)27% (Nov 18, 3:00 PM)29.18 "Hg (Nov 25, 7:00 PM)
Average8 °F61%29.92 "Hg
* Reported Nov 13 5:00 PM — Nov 28 5:00 PM, Ulaanbaatar, Weather by CustomWeather, © 2014

Note: Actual official high and low records may vary slightly from our data, if they occured in-between our weather recording intervals... More about our weather records

Advertising

Ulaanbaatar weather history for previous 24 hours

 ConditionsComfort  
Time TempWeatherWind HumidityBarometerVisibility
5:00 PM
Nov 28
5 °FScattered clouds.3 mph55%29.68 "Hg4 mi
4:30 PM12 °FScattered clouds.No wind48%29.68 "Hg4 mi
4:00 PM14 °FScattered clouds.1 mph44%29.65 "Hg4 mi
3:30 PM14 °FScattered clouds.3 mph44%29.65 "Hg4 mi
3:00 PM14 °FScattered clouds.No wind44%29.65 "Hg4 mi
2:30 PM12 °FPartly sunny.1 mph48%29.65 "Hg4 mi
2:00 PM12 °FPartly sunny.No wind48%29.62 "Hg3 mi
1:30 PM12 °FPartly sunny.1 mph48%29.62 "Hg3 mi
1:00 PM10 °FPartly sunny.No wind47%29.65 "Hg3 mi
12:30 PM9 °FScattered clouds.1 mph51%29.65 "Hg3 mi
11:30 AM5 °FPartly sunny.No wind55%29.65 "Hg4 mi
11:00 AM1 °FPartly sunny.1 mph60%29.62 "Hg4 mi
10:30 AM1 °FPartly sunny.1 mph60%29.62 "Hg4 mi
10:00 AM0 °FPartly sunny.1 mph65%29.62 "Hg4 mi
9:30 AM-4 °FClear.1 mph71%29.62 "Hg5 mi
9:00 AM-8 °FClear.No wind70%29.62 "Hg5 mi
8:30 AM-11 °FClear.No wind70%29.62 "Hg5 mi
8:00 AM-9 °FClear.No wind77%29.62 "Hg10 mi
7:30 AM-9 °FClear.1 mph70%29.62 "Hg10 mi
7:00 AM-9 °FClear.No wind70%29.62 "Hg10 mi
6:30 AM-9 °FClear.No wind70%29.62 "Hg10 mi
6:00 AM-9 °FClear.1 mph70%29.62 "Hg10 mi
5:30 AM-9 °FClear.No wind70%29.62 "Hg10 mi
5:00 AM-9 °FClear.1 mph70%29.62 "Hg10 mi
4:00 AM-8 °FClear.1 mph70%29.62 "Hg10 mi
3:00 AM-6 °FClear.1 mph70%29.62 "Hg10 mi
2:30 AM-9 °FClear.1 mph70%29.62 "Hg10 mi
2:00 AM-6 °FClear.1 mph70%29.62 "Hg10 mi
1:30 AM-4 °FClear.3 mph65%29.62 "Hg10 mi
1:00 AM-4 °FClear.No wind71%29.62 "Hg10 mi
12:30 AM-4 °FClear.1 mph65%29.62 "Hg10 mi
12:00 AM0 °FClear.No wind65%29.62 "Hg10 mi
11:30 PM
Nov 27
0 °FClear.3 mph65%29.62 "Hg10 mi
11:00 PM0 °FClear.1 mph60%29.62 "Hg10 mi
10:30 PM5 °FClear.3 mph55%29.62 "Hg10 mi
10:00 PM7 °FClear.3 mph51%29.62 "Hg10 mi
9:30 PM7 °FClear.1 mph51%29.62 "Hg10 mi
9:00 PM10 °FClear.3 mph44%29.65 "Hg10 mi
8:30 PM14 °FClear.1 mph37%29.65 "Hg10 mi
8:00 PM14 °FPassing clouds.8 mph37%29.65 "HgN/A
7:30 PM16 °FClear.13 mph34%29.65 "Hg10 mi
7:00 PM16 °FClear.13 mph37%29.65 "Hg10 mi
6:30 PM14 °FClear.13 mph37%29.65 "Hg10 mi
6:00 PM16 °FSunny.10 mph34%29.65 "Hg10 mi
Weather by CustomWeather, © 2014

See weather overviewHow to use our weather pages